Snowfall_Accumulation
0.0 0.0 0.4 0.0 0.0 0.0 0.0 0.0 1.5 0.0 0.0 0.0 0.0 0.0 0.0 0.0 0.0 0.0 0.0 0.0 0.0 0.0 0.0 0.0 0.0 0.0 0.0 0.0 0.0 0.0 0.0 0.0 0.0 0.0 0.0 0.0 0.0 0.0 0.0 0.0 0.0 0.0 0.0 0.0
0.0 0.4 0.0 0.0 0.0 0.0 0.5 0.5 2.7 0.0 0.0 0.0 0.0 0.0 0.0 0.0 0.0 0.0 0.0 0.0 0.0 0.0 0.0 0.0 0.0 0.0 0.0 0.0 0.0 0.0 0.0 0.0 0.0 0.0 0.0 0.0 0.0 0.0 0.0 0.0 0.0 0.0 0.0 0.0
1.8 0.0 0.0 0.0 0.9 1.0 0.0 3.3 0.4 0.4 0.0 0.0 0.0 0.0 0.0 0.0 0.0 0.0 0.0 0.0 0.0 0.0 0.0 0.0 0.0 0.0 0.0 0.0 0.0 0.0 0.0 0.0 0.0 0.0 0.0 0.0 0.0 0.0 0.0 0.0 0.0 0.0 0.0 0.0
0.0 0.0 0.0 0.0 3.3 0.0 3.7 0.0 0.0 0.0 3.7 5.6 0.0 6.5 0.0 0.0 0.0 0.0 0.0 0.0 0.0 0.0 0.0 0.0 0.0 0.0 0.0 0.0 0.0 0.0 0.0 0.0 0.0 0.0 0.0 0.0 0.0 0.0 0.0 0.0 0.0 0.0 0.0 0.0
0.5 0.0 0.0 0.0 0.4 0.0 4.8 0.0 0.0 0.0 2.9 3.4 0.0 5.2 0.0 0.0 0.0 0.0 0.0 0.0 0.0 0.0 0.0 0.0 0.0 0.0 0.0 0.0 0.0 0.0 0.0 0.0 0.0 0.0 0.0 0.0 0.0 0.0 0.0 0.0 0.0 0.0 0.0 0.0
0.0 0.0 0.0 1.9 0.0 0.0 0.0 0.0 0.0 0.2 4.1 8.1 2.5 2.9 0.0 0.0 0.0 0.0 0.0 0.0 0.0 0.0 0.0 0.0 0.0 0.0 0.0 0.0 0.0 0.0 0.0 0.0 0.0 0.0 0.0 0.0 0.0 0.0 0.0 0.0 0.0 0.0 0.0 0.0
0.0 0.0 0.0 0.0 2.5 0.0 0.2 9.8 14.6 16.1 16.9 11.3 0.0 0.8 0.0 0.0 0.0 0.0 0.0 0.0 0.0 0.0 0.0 0.0 0.0 0.0 0.0 0.0 0.0 0.0 0.0 0.0 0.0 0.0 0.0 0.0 0.0 0.0 0.0 0.0 0.0 0.0 0.0 0.0
0.3 0.2 0.1 0.0 1.7 0.6 1.7 11.3 11.9 11.3 8.4 4.9 0.7 5.8 0.0 0.0 0.0 0.0 0.0 0.0 0.0 0.0 0.0 0.0 0.0 0.0 0.0 0.0 0.0 0.0 0.0 0.0 0.0 0.0 0.0 0.0 0.0 0.0 0.0 0.0 0.0 0.0 0.0 0.0
0.9 0.0 0.0 0.0 0.0 4.0 6.1 9.9 3.2 7.7 4.1 4.1 5.4 0.0 0.0 0.0 0.0 0.0 0.0 0.0 0.0 0.0 0.0 0.0 0.0 0.0 0.0 0.0 0.0 0.0 0.0 0.0 0.0 0.0 0.0 0.0 0.0 0.0 0.0 0.0 0.0 0.0 0.0 0.0
1.6 1.5 0.0 0.0 0.0 0.0 7.3 3.2 6.9 9.2 8.4 5.6 4.4 1.2 1.2 0.3 0.0 0.0 0.0 0.0 0.0 0.0 0.0 0.0 0.0 0.0 0.0 0.0 0.0 0.0 0.0 0.0 0.0 0.0 0.0 0.0 0.0 0.0 0.0 0.0 0.0 0.0 0.0 0.0
1.1 2.7 0.0 0.0 0.0 2.1 8.1 9.8 8.2 5.5 2.6 5.0 4.9 2.8 1.7 0.6 0.0 0.0 0.0 0.0 0.0 0.0 0.0 0.0 0.0 0.0 0.0 0.0 0.0 0.0 0.0 0.0 0.0 0.0 0.0 0.0 0.0 0.0 0.0 0.0 0.0 0.0 0.0 0.3
2.0 4.1 1.2 0.0 0.0 0.0 1.5 4.0 5.4 7.3 4.1 2.8 3.6 2.2 0.0 0.0 0.0 0.0 0.0 0.0 0.0 0.0 0.0 0.0 0.0 0.0 0.0 0.0 0.0 0.0 0.0 0.0 0.0 0.0 0.0 0.0 0.0 0.0 0.0 0.0 0.0 0.0 0.2 0.1
4.4 3.8 1.7 1.0 0.3 0.0 0.6 0.0 0.8 4.5 6.5 5.0 5.7 3.7 0.0 0.0 1.7 0.0 0.0 0.0 0.0 0.0 0.0 0.0 0.0 0.0 0.0 0.0 0.0 0.0 0.0 0.0 0.0 0.0 0.0 0.0 0.0 0.0 0.0 0.0 0.0 3.4 0.2 1.1
0.0 5.7 6.6 3.1 1.1 1.2 0.7 0.1 1.3 4.4 7.2 6.1 4.8 5.4 2.4 5.6 6.7 1.6 0.3 0.3 0.2 0.0 0.0 0.0 0.0 0.0 0.0 0.0 0.0 0.0 0.0 0.0 0.0 0.0 0.0 0.0 0.0 0.0 0.1 0.0 3.6 0.2 0.9 0.6
0.0 2.9 3.5 3.1 1.6 1.3 1.0 1.0 1.7 2.2 5.4 6.6 5.0 5.5 7.8 9.2 10.2 8.5 6.3 5.8 3.1 3.5 1.4 0.0 0.0 0.0 0.0 0.0 0.0 0.0 0.0 0.0 0.0 0.0 0.0 0.0 0.0 3.4 3.5 2.4 1.4 0.8 0.6 0.5
0.0 0.3 0.4 1.4 1.5 1.3 0.7 0.7 1.2 2.0 3.6 2.4 2.6 4.0 1.1 2.9 6.6 10.4 9.5 8.8 7.4 5.7 5.3 4.4 4.8 0.0 0.0 0.0 0.0 0.0 0.0 0.0 0.0 0.0 0.0 0.0 0.0 0.2 1.5 1.0 0.8 0.6 0.3 0.1
1.2 1.1 0.1 0.2 0.5 0.0 0.1 0.1 0.3 2.5 2.2 2.5 2.7 3.6 2.3 2.0 6.5 8.0 7.6 7.5 7.6 6.9 6.1 5.8 2.2 0.0 0.0 0.0 0.0 0.0 0.0 0.0 0.0 0.0 0.0 2.7 0.2 0.9 0.7 0.5 0.2 0.1 0.0 0.0
2.3 1.5 0.7 0.3 0.0 0.1 0.0 0.0 0.1 0.6 1.3 1.0 2.6 2.4 0.0 1.9 0.0 4.0 4.2 4.1 7.6 6.9 7.8 8.4 8.0 4.7 4.5 5.2 4.7 4.8 4.5 0.0 3.7 2.7 1.7 1.0 0.6 0.3 0.1 0.0 0.0 0.0 0.0 0.0
1.1 3.1 1.6 0.4 0.0 0.0 0.0 0.0 0.0 0.9 1.2 0.4 0.8 0.8 1.0 0.6 0.0 1.9 3.8 4.8 4.7 4.1 5.2 5.2 5.0 5.3 5.4 5.0 4.0 3.0 2.5 1.9 1.3 0.9 0.4 0.2 0.1 0.0 0.0 0.0 0.0 0.0 0.0 0.0
0.3 1.2 2.6 0.1 0.2 0.0 0.0 0.0 0.0 0.0 1.0 0.0 0.0 0.3 0.3 0.0 0.3 1.2 2.3 3.1 3.6 3.2 3.1 3.1 2.8 2.4 2.2 2.1 1.5 0.0 0.7 0.4 0.1 0.0 0.0 0.0 0.0 0.0 0.0 0.0 0.0 0.0 0.0 0.0
0.6 1.1 0.9 0.3 0.2 0.0 0.0 0.0 0.0 0.0 0.5 0.0 0.0 0.0 0.0 0.0 0.1 0.3 0.8 1.1 2.0 2.5 2.6 2.3 2.0 1.6 1.2 1.0 0.0 0.0 0.1 0.0 0.0 0.0 0.0 0.0 0.0 0.0 0.0 0.0 0.0 0.0 0.0 0.0
0.0 0.1 0.0 0.1 0.0 0.0 0.0 0.0 0.0 0.0 0.0 0.0 0.0 0.0 0.0 0.0 0.0 0.0 0.1 0.2 0.5 0.9 1.2 1.1 0.7 0.6 0.6 0.4 0.0 0.0 0.1 0.0 0.0 0.0 0.0 0.0 0.0 0.0 0.0 0.0 0.0 0.0 0.0 0.0
0.0 0.0 0.0 0.0 0.0 0.0 0.0 0.0 0.0 0.0 0.0 0.0 0.0 0.0 0.0 0.0 0.0 0.0 0.0 0.0 0.0 0.0 0.2 0.3 0.0 0.2 0.2 0.1 0.1 0.0 0.0 0.2 0.3 0.4 0.0 0.0 0.0 0.0 0.0 0.0 0.0 0.0 0.0 0.0
0.0 0.0 0.0 0.0 0.0 0.0 0.0 0.0 0.0 0.0 0.0 0.0 0.0 0.0 0.0 0.0 0.0 0.0 0.0 0.0 0.0 0.0 0.0 0.0 0.0 0.1 0.2 0.1 0.2 0.1 0.1 0.1 0.7 1.0 0.4 0.1 0.0 0.0 0.0 0.0 0.0 0.0 0.0 0.0
0.0 0.0 0.0 0.0 0.0 0.0 0.0 0.0 0.0 0.0 0.0 0.0 0.0 0.0 0.0 0.0 0.0 0.0 0.0 0.0 0.0 0.0 0.0 0.0 0.0 0.0 0.1 0.1 0.0 0.0 0.2 0.6 1.2 0.8 0.2 0.1 0.0 0.0 0.0 0.0 0.0 0.0 0.0 0.0
0.0 0.0 0.0 0.0 0.0 0.0 0.0 0.0 0.0 0.0 0.0 0.0 0.0 0.0 0.0 0.0 0.0 0.0 0.0 0.0 0.0 0.0 0.0 0.0 0.0 0.0 0.0 0.1 0.1 0.0 0.1 0.6 0.9 0.7 0.3 0.0 0.1 0.0 0.0 0.0 0.0 0.0 0.0 0.0